Year,Month,Day,Hour,Minute,Value (Times are PST for windgust in km/hr)
2017,05,23,03,02,4.80
2017,05,23,03,03,4.80
2017,05,23,03,04,3.20
2017,05,23,03,05,3.20
2017,05,23,03,07,3.20
2017,05,23,03,08,1.60
2017,05,23,03,10,3.20
2017,05,23,03,11,4.80
2017,05,23,03,12,4.80
2017,05,23,03,13,4.80
2017,05,23,03,14,3.20
2017,05,23,03,15,3.20
2017,05,23,03,16,1.60
2017,05,23,03,22,1.60
2017,05,23,03,24,1.60
2017,05,23,03,25,1.60
2017,05,23,03,26,1.60
2017,05,23,03,28,1.60
2017,05,23,03,29,1.60
2017,05,23,03,37,1.60
2017,05,23,03,38,3.20
2017,05,23,03,39,3.20
2017,05,23,03,40,3.20
2017,05,23,03,41,3.20
2017,05,23,03,42,1.60
2017,05,23,03,43,1.60
2017,05,23,05,22,1.60
2017,05,23,05,39,1.60
2017,05,23,05,41,1.60
2017,05,23,06,51,1.60
2017,05,23,07,07,4.80
2017,05,23,07,08,6.40
2017,05,23,07,09,6.40
2017,05,23,07,10,6.40
2017,05,23,07,11,4.80
2017,05,23,07,12,6.40
2017,05,23,07,13,4.80
2017,05,23,07,14,4.80
2017,05,23,07,15,6.40
2017,05,23,07,16,4.80
2017,05,23,07,17,4.80
2017,05,23,07,18,4.80
2017,05,23,07,19,4.80
2017,05,23,07,20,3.20
2017,05,23,07,21,3.20
2017,05,23,07,22,3.20
2017,05,23,07,23,4.80
2017,05,23,07,24,4.80
2017,05,23,07,25,4.80
2017,05,23,07,26,6.40
2017,05,23,07,27,6.40
2017,05,23,07,28,6.40
2017,05,23,07,29,6.40
2017,05,23,07,30,6.40
2017,05,23,07,31,6.40
2017,05,23,07,32,6.40
2017,05,23,07,33,6.40
2017,05,23,07,34,6.40
2017,05,23,07,35,6.40
2017,05,23,07,36,6.40
2017,05,23,07,37,8.10
2017,05,23,07,38,4.80
2017,05,23,07,39,6.40
2017,05,23,07,40,6.40
2017,05,23,07,41,8.10
2017,05,23,07,42,6.40
2017,05,23,07,43,4.80
2017,05,23,07,44,3.20
2017,05,23,07,45,3.20
2017,05,23,07,46,8.10
2017,05,23,07,47,6.40
2017,05,23,07,48,4.80
2017,05,23,07,49,3.20
2017,05,23,07,50,4.80
2017,05,23,07,51,3.20
2017,05,23,07,52,3.20
2017,05,23,07,53,6.40
2017,05,23,07,54,4.80
2017,05,23,07,55,4.80
2017,05,23,07,56,4.80
2017,05,23,07,57,3.20
2017,05,23,07,58,3.20
2017,05,23,07,59,3.20
2017,05,23,08,00,4.80
2017,05,23,08,01,4.80
2017,05,23,08,02,4.80
2017,05,23,08,03,4.80
2017,05,23,08,04,4.80
2017,05,23,08,05,3.20
2017,05,23,08,06,3.20
2017,05,23,08,07,1.60
2017,05,23,08,08,1.60
2017,05,23,08,09,1.60
2017,05,23,08,10,1.60
2017,05,23,08,11,3.20
2017,05,23,08,12,3.20
2017,05,23,08,13,3.20
2017,05,23,08,14,1.60
2017,05,23,08,15,4.80
2017,05,23,08,16,3.20
2017,05,23,08,17,3.20
2017,05,23,08,18,3.20
2017,05,23,08,19,3.20
2017,05,23,08,20,3.20
2017,05,23,08,21,1.60
2017,05,23,08,22,1.60
2017,05,23,08,23,4.80
2017,05,23,08,24,3.20
2017,05,23,08,25,4.80
2017,05,23,08,26,6.40
2017,05,23,08,27,8.10
2017,05,23,08,28,4.80
2017,05,23,08,29,4.80
2017,05,23,08,30,3.20
2017,05,23,08,31,3.20
2017,05,23,08,32,1.60
2017,05,23,08,33,4.80
2017,05,23,08,34,8.10
2017,05,23,08,35,6.40
2017,05,23,08,36,4.80
2017,05,23,08,37,4.80
2017,05,23,08,38,3.20
2017,05,23,08,39,3.20
2017,05,23,08,40,3.20
2017,05,23,08,41,4.80
2017,05,23,08,42,4.80
2017,05,23,08,43,6.40
2017,05,23,08,44,8.10
2017,05,23,08,45,8.10
2017,05,23,08,46,9.60
2017,05,23,08,47,9.60
2017,05,23,08,48,9.60
2017,05,23,08,49,9.60
2017,05,23,08,50,8.10
2017,05,23,08,51,11.30
2017,05,23,08,52,9.60
2017,05,23,08,53,9.60
2017,05,23,08,54,6.40
2017,05,23,08,55,6.40
2017,05,23,08,56,6.40
2017,05,23,08,57,8.10
2017,05,23,08,58,6.40
2017,05,23,08,59,6.40
2017,05,23,09,00,6.40
2017,05,23,09,01,4.80
2017,05,23,09,02,3.20
2017,05,23,09,03,3.20
2017,05,23,09,04,3.20
2017,05,23,09,05,3.20
2017,05,23,09,06,3.20
2017,05,23,09,07,4.80
2017,05,23,09,08,4.80
2017,05,23,09,09,6.40
2017,05,23,09,10,6.40
2017,05,23,09,11,6.40
2017,05,23,09,12,8.10
2017,05,23,09,13,6.40
2017,05,23,09,14,6.40
2017,05,23,09,15,6.40
2017,05,23,09,16,6.40
2017,05,23,09,17,8.10
2017,05,23,09,18,8.10
2017,05,23,09,19,8.10
2017,05,23,09,20,8.10
2017,05,23,09,21,8.10
2017,05,23,09,22,8.10
2017,05,23,09,23,9.60
2017,05,23,09,24,8.10
2017,05,23,09,25,11.30
2017,05,23,09,26,9.60
2017,05,23,09,27,11.30
2017,05,23,09,28,9.60
2017,05,23,09,29,11.30
2017,05,23,09,30,8.10
2017,05,23,09,31,4.80
2017,05,23,09,32,11.30
2017,05,23,09,33,6.40
2017,05,23,09,34,6.40
2017,05,23,09,35,6.40
2017,05,23,09,36,14.50
2017,05,23,09,37,11.30
2017,05,23,09,38,16.10
2017,05,23,09,39,11.30
2017,05,23,09,40,9.60
2017,05,23,09,41,8.10
2017,05,23,09,42,9.60
2017,05,23,09,43,14.50
2017,05,23,09,44,11.30
2017,05,23,09,45,6.40
2017,05,23,09,46,6.40
2017,05,23,09,47,4.80
2017,05,23,09,48,8.10
2017,05,23,09,49,4.80
2017,05,23,09,50,4.80
2017,05,23,09,51,3.20
2017,05,23,09,52,4.80
2017,05,23,09,53,3.20
2017,05,23,09,54,3.20
2017,05,23,09,55,4.80
2017,05,23,09,56,6.40
2017,05,23,09,57,8.10
2017,05,23,09,58,6.40
2017,05,23,09,59,4.80
2017,05,23,10,00,4.80
2017,05,23,10,01,4.80
2017,05,23,10,02,4.80
2017,05,23,10,03,4.80
2017,05,23,10,04,11.30
2017,05,23,10,05,12.90
2017,05,23,10,06,6.40
2017,05,23,10,07,6.40
2017,05,23,10,08,4.80
2017,05,23,10,09,6.40
2017,05,23,10,10,6.40
2017,05,23,10,11,6.40
2017,05,23,10,12,4.80
2017,05,23,10,13,6.40
2017,05,23,10,14,4.80
2017,05,23,10,15,4.80
2017,05,23,10,16,3.20
2017,05,23,10,17,4.80
2017,05,23,10,18,4.80
2017,05,23,10,19,4.80
2017,05,23,10,20,1.60
2017,05,23,10,21,6.40
2017,05,23,10,22,8.10
2017,05,23,10,23,1.60
2017,05,23,10,24,1.60
2017,05,23,10,25,4.80
2017,05,23,10,26,4.80
2017,05,23,10,27,4.80
2017,05,23,10,28,4.80
2017,05,23,10,29,6.40
2017,05,23,10,30,4.80
2017,05,23,10,31,6.40
2017,05,23,10,32,6.40
2017,05,23,10,33,1.60
2017,05,23,10,34,6.40
2017,05,23,10,35,4.80
2017,05,23,10,36,4.80
2017,05,23,10,37,1.60
2017,05,23,10,38,3.20
2017,05,23,10,39,4.80
2017,05,23,10,40,6.40
2017,05,23,10,41,8.10
2017,05,23,10,42,9.60
2017,05,23,10,43,6.40
2017,05,23,10,44,4.80
2017,05,23,10,45,6.40
2017,05,23,10,46,1.60
2017,05,23,10,47,6.40
2017,05,23,10,48,6.40
2017,05,23,10,49,4.80
2017,05,23,10,50,3.20
2017,05,23,10,51,6.40
2017,05,23,10,52,8.10
2017,05,23,10,53,8.10
2017,05,23,10,54,8.10
2017,05,23,10,55,11.30
2017,05,23,10,56,14.50
2017,05,23,10,57,12.90
2017,05,23,10,58,12.90
2017,05,23,10,59,11.30
2017,05,23,11,00,11.30
2017,05,23,11,01,11.30
2017,05,23,11,02,11.30
2017,05,23,11,03,11.30
2017,05,23,11,04,4.80
2017,05,23,11,05,8.10
2017,05,23,11,06,9.60
2017,05,23,11,07,11.30
2017,05,23,11,08,9.60
2017,05,23,11,09,8.10
2017,05,23,11,10,11.30
2017,05,23,11,11,8.10
2017,05,23,11,12,4.80
2017,05,23,11,13,6.40
2017,05,23,11,14,4.80
2017,05,23,11,15,4.80
2017,05,23,11,16,6.40
2017,05,23,11,17,4.80
2017,05,23,11,18,3.20
2017,05,23,11,19,9.60
2017,05,23,11,20,11.30
2017,05,23,11,21,8.10
2017,05,23,11,22,6.40
2017,05,23,11,23,8.10
2017,05,23,11,24,11.30
2017,05,23,11,25,17.70
2017,05,23,11,26,9.60
2017,05,23,11,27,11.30
2017,05,23,11,28,9.60
2017,05,23,11,29,6.40
2017,05,23,11,30,11.30
2017,05,23,11,31,8.10
2017,05,23,11,32,6.40
2017,05,23,11,33,6.40
2017,05,23,11,34,8.10
2017,05,23,11,35,6.40
2017,05,23,11,36,11.30
2017,05,23,11,37,11.30
2017,05,23,11,38,8.10
2017,05,23,11,39,8.10
2017,05,23,11,40,6.40
2017,05,23,11,41,8.10
2017,05,23,11,42,6.40
2017,05,23,11,43,9.60
2017,05,23,11,44,11.30
2017,05,23,11,45,4.80
2017,05,23,11,46,4.80
2017,05,23,11,47,6.40
2017,05,23,11,48,4.80
2017,05,23,11,49,4.80
2017,05,23,11,50,6.40
2017,05,23,11,51,6.40
2017,05,23,11,52,8.10
2017,05,23,11,53,8.10
2017,05,23,11,54,4.80
2017,05,23,11,55,8.10
2017,05,23,11,56,9.60
2017,05,23,11,57,14.50
2017,05,23,11,58,16.10
2017,05,23,11,59,12.90
2017,05,23,12,00,12.90
2017,05,23,12,01,9.60
2017,05,23,12,02,1.60
2017,05,23,12,03,9.60
2017,05,23,12,04,9.60
2017,05,23,12,05,12.90
2017,05,23,12,06,8.10
2017,05,23,12,07,8.10
2017,05,23,12,08,12.90
2017,05,23,12,09,14.50
2017,05,23,12,10,12.90
2017,05,23,12,11,11.30
2017,05,23,12,12,11.30
2017,05,23,12,13,8.10
2017,05,23,12,14,4.80
2017,05,23,12,15,4.80
2017,05,23,12,16,9.60
2017,05,23,12,17,6.40
2017,05,23,12,18,8.10
2017,05,23,12,19,6.40
2017,05,23,12,20,11.30
2017,05,23,12,21,11.30
2017,05,23,12,22,11.30
2017,05,23,12,23,12.90
2017,05,23,12,24,14.50
2017,05,23,12,25,12.90
2017,05,23,12,26,9.60
2017,05,23,12,27,11.30
2017,05,23,12,28,4.80
2017,05,23,12,29,6.40
2017,05,23,12,30,11.30
2017,05,23,12,31,11.30
2017,05,23,12,32,8.10
2017,05,23,12,33,8.10
2017,05,23,12,34,6.40
2017,05,23,12,35,6.40
2017,05,23,12,36,4.80
2017,05,23,12,37,6.40
2017,05,23,12,38,4.80
2017,05,23,12,39,11.30
2017,05,23,12,40,9.60
2017,05,23,12,41,9.60
2017,05,23,12,42,11.30
2017,05,23,12,43,6.40
2017,05,23,12,44,11.30
2017,05,23,12,45,11.30
2017,05,23,12,46,11.30
2017,05,23,12,47,8.10
2017,05,23,12,48,17.70
2017,05,23,12,49,20.90
2017,05,23,12,50,25.70
2017,05,23,12,51,12.90
2017,05,23,12,52,20.90
2017,05,23,12,53,17.70
2017,05,23,12,54,16.10
2017,05,23,12,55,16.10
2017,05,23,12,56,14.50
2017,05,23,12,57,11.30
2017,05,23,12,58,19.30
2017,05,23,12,59,14.50
2017,05,23,13,00,11.30
2017,05,23,13,01,11.30
2017,05,23,13,02,12.90
2017,05,23,13,03,11.30
2017,05,23,13,04,12.90
2017,05,23,13,05,17.70
2017,05,23,13,06,16.10
2017,05,23,13,07,17.70
2017,05,23,13,08,17.70
2017,05,23,13,09,20.90
2017,05,23,13,10,17.70
2017,05,23,13,11,24.20
2017,05,23,13,12,25.70
2017,05,23,13,13,14.50
2017,05,23,13,14,12.90
2017,05,23,13,15,19.30
2017,05,23,13,16,32.20
2017,05,23,13,17,24.20
2017,05,23,13,18,19.30
2017,05,23,13,19,20.90
2017,05,23,13,20,20.90
2017,05,23,13,21,17.70
2017,05,23,13,22,22.50
2017,05,23,13,23,17.70
2017,05,23,13,24,16.10
2017,05,23,13,25,9.60
2017,05,23,13,26,12.90
2017,05,23,13,27,14.50
2017,05,23,13,28,12.90
2017,05,23,13,29,11.30
2017,05,23,13,30,12.90
2017,05,23,13,31,17.70
2017,05,23,13,32,14.50
2017,05,23,13,33,19.30
2017,05,23,13,34,17.70
2017,05,23,13,35,12.90
2017,05,23,13,36,22.50
2017,05,23,13,37,17.70
2017,05,23,13,38,20.90
2017,05,23,13,39,19.30
2017,05,23,13,40,27.40
2017,05,23,13,41,14.50
2017,05,23,13,42,16.10
2017,05,23,13,43,9.60
2017,05,23,13,44,8.10
2017,05,23,13,45,17.70
2017,05,23,13,46,16.10
2017,05,23,13,47,14.50
2017,05,23,13,48,19.30
2017,05,23,13,49,24.20
2017,05,23,13,50,20.90
2017,05,23,13,51,30.60
2017,05,23,13,52,22.50
2017,05,23,13,53,19.30
2017,05,23,13,54,24.20
2017,05,23,13,55,29.00
2017,05,23,13,56,14.50
2017,05,23,13,57,11.30
2017,05,23,13,58,12.90
2017,05,23,13,59,11.30
2017,05,23,14,00,16.10
2017,05,23,14,01,19.30
2017,05,23,14,02,17.70
2017,05,23,14,03,11.30
2017,05,23,14,04,25.70
2017,05,23,14,05,19.30
2017,05,23,14,06,24.20
2017,05,23,14,07,17.70
2017,05,23,14,08,17.70
2017,05,23,14,09,24.20
2017,05,23,14,10,11.30
2017,05,23,14,11,11.30
2017,05,23,14,12,9.60
2017,05,23,14,13,16.10
2017,05,23,14,14,14.50
2017,05,23,14,15,11.30
2017,05,23,14,16,12.90
2017,05,23,14,17,12.90
2017,05,23,14,18,17.70
2017,05,23,14,19,16.10
2017,05,23,14,20,14.50
2017,05,23,14,21,17.70
2017,05,23,14,22,11.30
2017,05,23,14,23,9.60
2017,05,23,14,24,22.50
2017,05,23,14,25,19.30
2017,05,23,14,26,14.50
2017,05,23,14,27,19.30
2017,05,23,14,28,20.90
2017,05,23,14,29,14.50
2017,05,23,14,30,29.00
2017,05,23,14,31,16.10
2017,05,23,14,32,17.70
2017,05,23,14,33,16.10
2017,05,23,14,34,19.30
2017,05,23,14,35,14.50
2017,05,23,14,36,16.10
2017,05,23,14,37,12.90
2017,05,23,14,38,14.50
2017,05,23,14,39,11.30
2017,05,23,14,40,12.90
2017,05,23,14,41,16.10
2017,05,23,14,42,8.10
2017,05,23,14,43,4.80
2017,05,23,14,44,6.40
2017,05,23,14,45,4.80
2017,05,23,14,46,9.60
2017,05,23,14,47,9.60
2017,05,23,14,48,9.60
2017,05,23,14,49,17.70
2017,05,23,14,50,19.30
2017,05,23,14,51,27.40
2017,05,23,14,52,19.30
2017,05,23,14,53,14.50
2017,05,23,14,54,14.50
2017,05,23,14,55,24.20
2017,05,23,14,56,14.50
2017,05,23,14,57,20.90
2017,05,23,14,58,17.70
2017,05,23,14,59,16.10
2017,05,23,15,00,14.50
2017,05,23,15,01,16.10
2017,05,23,15,02,17.70
2017,05,23,15,03,12.90
2017,05,23,15,04,19.30
2017,05,23,15,05,16.10
2017,05,23,15,06,19.30
2017,05,23,15,07,11.30
2017,05,23,15,08,20.90
2017,05,23,15,09,19.30
2017,05,23,15,10,24.20
2017,05,23,15,11,22.50
2017,05,23,15,12,16.10
2017,05,23,15,13,22.50
2017,05,23,15,14,20.90
2017,05,23,15,15,16.10
2017,05,23,15,16,11.30
2017,05,23,15,17,14.50
2017,05,23,15,18,8.10
2017,05,23,15,19,11.30
2017,05,23,15,20,16.10
2017,05,23,15,21,25.70
2017,05,23,15,22,24.20
2017,05,23,15,23,16.10
2017,05,23,15,24,22.50
2017,05,23,15,25,12.90
2017,05,23,15,26,12.90
2017,05,23,15,27,20.90
2017,05,23,15,28,24.20
2017,05,23,15,29,27.40
2017,05,23,15,30,17.70
2017,05,23,15,31,20.90
2017,05,23,15,32,19.30
2017,05,23,15,33,20.90
2017,05,23,15,34,17.70
2017,05,23,15,35,17.70
2017,05,23,15,36,16.10
2017,05,23,15,37,12.90
2017,05,23,15,38,24.20
2017,05,23,15,39,29.00
2017,05,23,15,40,16.10
2017,05,23,15,41,25.70
2017,05,23,15,42,17.70
2017,05,23,15,43,27.40
2017,05,23,15,44,16.10
2017,05,23,15,45,14.50
2017,05,23,15,46,30.60
2017,05,23,15,47,30.60
2017,05,23,15,48,30.60
2017,05,23,15,49,32.20
2017,05,23,15,50,17.70
2017,05,23,15,51,17.70
2017,05,23,15,52,33.80
2017,05,23,15,53,24.20
2017,05,23,15,54,16.10
2017,05,23,15,55,9.60
2017,05,23,15,56,24.20
2017,05,23,15,57,9.60
2017,05,23,15,58,9.60
2017,05,23,15,59,20.90
2017,05,23,16,00,24.20
2017,05,23,16,01,14.50
2017,05,23,16,02,30.60
2017,05,23,16,03,12.90
2017,05,23,16,04,25.70
2017,05,23,16,05,33.80
2017,05,23,16,06,41.80
2017,05,23,16,07,16.10
2017,05,23,16,08,12.90
2017,05,23,16,09,17.70
2017,05,23,16,10,19.30
2017,05,23,16,11,20.90
2017,05,23,16,12,12.90
2017,05,23,16,13,20.90
2017,05,23,16,14,12.90
2017,05,23,16,15,11.30
2017,05,23,16,16,19.30
2017,05,23,16,17,9.60
2017,05,23,16,18,25.70
2017,05,23,16,19,30.60
2017,05,23,16,20,12.90
2017,05,23,16,21,22.50
2017,05,23,16,22,14.50
2017,05,23,16,23,11.30
2017,05,23,16,24,9.60
2017,05,23,16,25,16.10
2017,05,23,16,26,20.90
2017,05,23,16,27,17.70
2017,05,23,16,28,17.70
2017,05,23,16,29,16.10
2017,05,23,16,30,16.10
2017,05,23,16,31,29.00
2017,05,23,16,32,29.00
2017,05,23,16,33,22.50
2017,05,23,16,34,37.00
2017,05,23,16,35,14.50
2017,05,23,16,36,22.50
2017,05,23,16,37,16.10
2017,05,23,16,38,14.50
2017,05,23,16,39,11.30
2017,05,23,16,40,16.10
2017,05,23,16,41,19.30
2017,05,23,16,42,12.90
2017,05,23,16,43,17.70
2017,05,23,16,44,12.90
2017,05,23,16,45,14.50
2017,05,23,16,46,20.90
2017,05,23,16,47,12.90
2017,05,23,16,48,16.10
2017,05,23,16,49,19.30
2017,05,23,16,50,19.30
2017,05,23,16,51,20.90
2017,05,23,16,52,16.10
2017,05,23,16,53,14.50
2017,05,23,16,54,17.70
2017,05,23,16,55,17.70
2017,05,23,16,56,22.50
2017,05,23,16,57,14.50
2017,05,23,16,58,8.10
2017,05,23,16,59,19.30
2017,05,23,17,00,16.10
2017,05,23,17,01,11.30
2017,05,23,17,02,16.10
2017,05,23,17,03,17.70
2017,05,23,17,04,14.50
2017,05,23,17,05,11.30
2017,05,23,17,06,17.70
2017,05,23,17,07,17.70
2017,05,23,17,08,17.70
2017,05,23,17,09,11.30
2017,05,23,17,10,19.30
2017,05,23,17,11,25.70
2017,05,23,17,12,25.70
2017,05,23,17,13,14.50
2017,05,23,17,14,22.50
2017,05,23,17,15,24.20
2017,05,23,17,16,19.30
2017,05,23,17,17,16.10
2017,05,23,17,18,19.30
2017,05,23,17,19,22.50
2017,05,23,17,20,16.10
2017,05,23,17,21,11.30
2017,05,23,17,22,8.10
2017,05,23,17,23,14.50
2017,05,23,17,24,14.50
2017,05,23,17,25,11.30
2017,05,23,17,26,30.60
2017,05,23,17,27,12.90
2017,05,23,17,28,14.50
2017,05,23,17,29,17.70
2017,05,23,17,30,11.30
2017,05,23,17,31,12.90
2017,05,23,17,32,11.30
2017,05,23,17,33,19.30
2017,05,23,17,34,20.90
2017,05,23,17,35,12.90
2017,05,23,17,36,12.90
2017,05,23,17,37,12.90
2017,05,23,17,38,14.50
2017,05,23,17,39,11.30
2017,05,23,17,40,17.70
2017,05,23,17,41,19.30
2017,05,23,17,42,17.70
2017,05,23,17,43,14.50
2017,05,23,17,44,11.30
2017,05,23,17,45,9.60
2017,05,23,17,46,16.10
2017,05,23,17,47,30.60
2017,05,23,17,48,9.60
2017,05,23,17,49,16.10
2017,05,23,17,50,16.10
2017,05,23,17,51,11.30
2017,05,23,17,52,25.70
2017,05,23,17,53,19.30
2017,05,23,17,54,17.70
2017,05,23,17,55,6.40
2017,05,23,17,56,17.70
2017,05,23,17,57,20.90
2017,05,23,17,58,22.50
2017,05,23,17,59,12.90
2017,05,23,18,00,17.70
2017,05,23,18,01,14.50
2017,05,23,18,02,12.90
2017,05,23,18,03,12.90
2017,05,23,18,04,11.30
2017,05,23,18,05,12.90
2017,05,23,18,06,14.50
2017,05,23,18,07,11.30
2017,05,23,18,08,17.70
2017,05,23,18,09,20.90
2017,05,23,18,10,16.10
2017,05,23,18,11,17.70
2017,05,23,18,12,16.10
2017,05,23,18,13,12.90
2017,05,23,18,14,25.70
2017,05,23,18,15,12.90
2017,05,23,18,16,16.10
2017,05,23,18,17,9.60
2017,05,23,18,18,12.90
2017,05,23,18,19,12.90
2017,05,23,18,20,12.90
2017,05,23,18,21,22.50
2017,05,23,18,22,27.40
2017,05,23,18,23,17.70
2017,05,23,18,24,19.30
2017,05,23,18,25,16.10
2017,05,23,18,26,9.60
2017,05,23,18,27,16.10
2017,05,23,18,28,24.20
2017,05,23,18,29,14.50
2017,05,23,18,30,17.70
2017,05,23,18,31,16.10
2017,05,23,18,32,16.10
2017,05,23,18,33,20.90
2017,05,23,18,34,25.70
2017,05,23,18,35,32.20
2017,05,23,18,36,24.20
2017,05,23,18,37,41.80
2017,05,23,18,38,17.70
2017,05,23,18,39,14.50
2017,05,23,18,40,19.30
2017,05,23,18,41,22.50
2017,05,23,18,42,16.10
2017,05,23,18,43,25.70
2017,05,23,18,44,14.50
2017,05,23,18,45,22.50
2017,05,23,18,46,25.70
2017,05,23,18,47,32.20
2017,05,23,18,48,14.50
2017,05,23,18,49,24.20
2017,05,23,18,50,16.10
2017,05,23,18,51,29.00
2017,05,23,18,52,22.50
2017,05,23,18,53,16.10
2017,05,23,18,54,24.20
2017,05,23,18,55,11.30
2017,05,23,18,56,8.10
2017,05,23,18,57,19.30
2017,05,23,18,58,24.20
2017,05,23,18,59,17.70
2017,05,23,19,00,19.30
2017,05,23,19,01,19.30
2017,05,23,19,02,19.30
2017,05,23,19,03,20.90
2017,05,23,19,04,16.10
2017,05,23,19,05,16.10
2017,05,23,19,06,25.70
2017,05,23,19,07,9.60
2017,05,23,19,08,20.90
2017,05,23,19,09,17.70
2017,05,23,19,10,22.50
2017,05,23,19,11,24.20
2017,05,23,19,12,22.50
2017,05,23,19,13,22.50
2017,05,23,19,14,17.70
2017,05,23,19,15,24.20
2017,05,23,19,16,24.20
2017,05,23,19,17,17.70
2017,05,23,19,18,24.20
2017,05,23,19,19,38.60
2017,05,23,19,20,20.90
2017,05,23,19,21,12.90
2017,05,23,19,22,14.50
2017,05,23,19,23,17.70
2017,05,23,19,24,8.10
2017,05,23,19,25,14.50
2017,05,23,19,26,24.20
2017,05,23,19,27,9.60
2017,05,23,19,28,16.10
2017,05,23,19,29,19.30
2017,05,23,19,30,6.40
2017,05,23,19,31,11.30
2017,05,23,19,32,19.30
2017,05,23,19,33,16.10
2017,05,23,19,34,14.50
2017,05,23,19,35,11.30
2017,05,23,19,36,22.50
2017,05,23,19,37,11.30
2017,05,23,19,38,29.00
2017,05,23,19,39,12.90
2017,05,23,19,40,11.30
2017,05,23,19,41,30.60
2017,05,23,19,42,27.40
2017,05,23,19,43,25.70
2017,05,23,19,44,19.30
2017,05,23,19,45,14.50
2017,05,23,19,46,14.50
2017,05,23,19,47,22.50
2017,05,23,19,48,16.10
2017,05,23,19,49,27.40
2017,05,23,19,50,24.20
2017,05,23,19,51,11.30
2017,05,23,19,52,29.00
2017,05,23,19,53,38.60
2017,05,23,19,54,29.00
2017,05,23,19,55,8.10
2017,05,23,19,56,22.50
2017,05,23,19,57,16.10
2017,05,23,19,58,27.40
2017,05,23,19,59,32.20
2017,05,23,20,00,20.90
2017,05,23,20,01,33.80
2017,05,23,20,02,27.40
2017,05,23,20,03,27.40
2017,05,23,20,04,12.90
2017,05,23,20,05,24.20
2017,05,23,20,06,20.90
2017,05,23,20,07,16.10
2017,05,23,20,08,24.20
2017,05,23,20,09,29.00
2017,05,23,20,10,19.30
2017,05,23,20,11,29.00
2017,05,23,20,12,24.20
2017,05,23,20,13,16.10
2017,05,23,20,14,30.60
2017,05,23,20,15,11.30
2017,05,23,20,16,11.30
2017,05,23,20,17,22.50
2017,05,23,20,18,16.10
2017,05,23,20,19,25.70
2017,05,23,20,20,6.40
2017,05,23,20,21,14.50
2017,05,23,20,22,20.90
2017,05,23,20,23,16.10
2017,05,23,20,24,25.70
2017,05,23,20,25,22.50
2017,05,23,20,26,9.60
2017,05,23,20,27,12.90
2017,05,23,20,28,16.10
2017,05,23,20,29,22.50
2017,05,23,20,30,24.20
2017,05,23,20,31,19.30
2017,05,23,20,32,17.70
2017,05,23,20,33,20.90
2017,05,23,20,34,11.30
2017,05,23,20,35,19.30
2017,05,23,20,36,20.90
2017,05,23,20,37,33.80
2017,05,23,20,38,16.10
2017,05,23,20,39,20.90
2017,05,23,20,40,17.70
2017,05,23,20,41,20.90
2017,05,23,20,42,12.90
2017,05,23,20,43,11.30
2017,05,23,20,44,32.20
2017,05,23,20,45,17.70
2017,05,23,20,46,11.30
2017,05,23,20,47,12.90
2017,05,23,20,48,9.60
2017,05,23,20,49,14.50
2017,05,23,20,50,16.10
2017,05,23,20,51,12.90
2017,05,23,20,52,11.30
2017,05,23,20,53,19.30
2017,05,23,20,54,22.50
2017,05,23,20,55,27.40
2017,05,23,20,56,22.50
2017,05,23,20,57,11.30
2017,05,23,20,58,12.90
2017,05,23,20,59,19.30
2017,05,23,21,00,14.50
2017,05,23,21,01,16.10
2017,05,23,21,02,12.90
2017,05,23,21,03,14.50
2017,05,23,21,04,14.50
2017,05,23,21,05,22.50
2017,05,23,21,06,12.90
2017,05,23,21,07,16.10
2017,05,23,21,08,19.30
2017,05,23,21,09,8.10
2017,05,23,21,10,11.30
2017,05,23,21,11,4.80
2017,05,23,21,12,22.50
2017,05,23,21,13,12.90
2017,05,23,21,14,11.30
2017,05,23,21,15,17.70
2017,05,23,21,16,12.90
2017,05,23,21,17,14.50
2017,05,23,21,18,27.40
2017,05,23,21,19,9.60
2017,05,23,21,20,16.10
2017,05,23,21,21,25.70
2017,05,23,21,22,14.50
2017,05,23,21,23,11.30
2017,05,23,21,24,11.30
2017,05,23,21,25,32.20
2017,05,23,21,26,17.70
2017,05,23,21,27,6.40
2017,05,23,21,28,8.10
2017,05,23,21,29,11.30
2017,05,23,21,30,16.10
2017,05,23,21,31,9.60
2017,05,23,21,32,11.30
2017,05,23,21,33,11.30
2017,05,23,21,34,14.50
2017,05,23,21,35,16.10
2017,05,23,21,36,16.10
2017,05,23,21,37,6.40
2017,05,23,21,38,11.30
2017,05,23,21,39,24.20
2017,05,23,21,40,16.10
2017,05,23,21,41,16.10
2017,05,23,21,42,9.60
2017,05,23,21,43,4.80
2017,05,23,21,44,12.90
2017,05,23,21,45,19.30
2017,05,23,21,46,16.10
2017,05,23,21,47,24.20
2017,05,23,21,48,14.50
2017,05,23,21,49,24.20
2017,05,23,21,50,14.50
2017,05,23,21,51,16.10
2017,05,23,21,52,12.90
2017,05,23,21,53,16.10
2017,05,23,21,54,12.90
2017,05,23,21,55,14.50
2017,05,23,21,56,12.90
2017,05,23,21,57,12.90
2017,05,23,21,58,8.10
2017,05,23,21,59,8.10
2017,05,23,22,00,9.60
2017,05,23,22,01,11.30
2017,05,23,22,02,9.60
2017,05,23,22,03,9.60
2017,05,23,22,04,12.90
2017,05,23,22,05,14.50
2017,05,23,22,06,16.10
2017,05,23,22,07,16.10
2017,05,23,22,08,14.50
2017,05,23,22,09,25.70
2017,05,23,22,10,17.70
2017,05,23,22,11,11.30
2017,05,23,22,12,8.10
2017,05,23,22,13,12.90
2017,05,23,22,14,12.90
2017,05,23,22,15,9.60
2017,05,23,22,16,12.90
2017,05,23,22,17,17.70
2017,05,23,22,18,12.90
2017,05,23,22,19,12.90
2017,05,23,22,20,16.10
2017,05,23,22,21,17.70
2017,05,23,22,22,11.30
2017,05,23,22,23,11.30
2017,05,23,22,24,17.70
2017,05,23,22,25,16.10
2017,05,23,22,26,4.80
2017,05,23,22,27,6.40
2017,05,23,22,28,4.80
2017,05,23,22,29,1.60
2017,05,23,22,30,1.60
2017,05,23,22,31,8.10
2017,05,23,22,32,3.20
2017,05,23,22,33,9.60
2017,05,23,22,34,9.60
2017,05,23,22,35,11.30
2017,05,23,22,36,8.10
2017,05,23,22,37,8.10
2017,05,23,22,38,9.60
2017,05,23,22,39,6.40
2017,05,23,22,40,4.80
2017,05,23,22,41,3.20
2017,05,23,22,42,3.20
2017,05,23,22,43,11.30
2017,05,23,22,44,14.50
2017,05,23,22,45,9.60
2017,05,23,22,46,9.60
2017,05,23,22,47,8.10
2017,05,23,22,48,3.20
2017,05,23,22,49,6.40
2017,05,23,22,50,4.80
2017,05,23,22,51,8.10
2017,05,23,22,52,4.80
2017,05,23,22,53,8.10
2017,05,23,22,54,8.10
2017,05,23,22,55,6.40
2017,05,23,22,56,14.50
2017,05,23,22,57,11.30
2017,05,23,22,58,4.80
2017,05,23,22,59,3.20
2017,05,23,23,00,9.60
2017,05,23,23,01,17.70
2017,05,23,23,02,6.40
2017,05,23,23,03,8.10
2017,05,23,23,04,9.60
2017,05,23,23,05,11.30
2017,05,23,23,06,11.30
2017,05,23,23,07,4.80
2017,05,23,23,08,6.40
2017,05,23,23,09,3.20
2017,05,23,23,10,11.30
2017,05,23,23,11,6.40
2017,05,23,23,12,1.60
2017,05,23,23,13,11.30
2017,05,23,23,14,8.10
2017,05,23,23,15,1.60
2017,05,23,23,16,4.80
2017,05,23,23,17,8.10
2017,05,23,23,18,11.30
2017,05,23,23,19,6.40
2017,05,23,23,20,4.80
2017,05,23,23,21,1.60
2017,05,23,23,22,11.30
2017,05,23,23,23,6.40
2017,05,23,23,24,6.40
2017,05,23,23,25,8.10
2017,05,23,23,26,12.90
2017,05,23,23,27,9.60
2017,05,23,23,28,8.10
2017,05,23,23,29,9.60
2017,05,23,23,30,8.10
2017,05,23,23,31,4.80
2017,05,23,23,32,11.30
2017,05,23,23,33,11.30
2017,05,23,23,34,4.80
2017,05,23,23,35,11.30
2017,05,23,23,36,6.40
2017,05,23,23,37,4.80
2017,05,23,23,38,4.80
2017,05,23,23,39,1.60
2017,05,23,23,40,4.80
2017,05,23,23,41,9.60
2017,05,23,23,42,8.10
2017,05,23,23,43,8.10
2017,05,23,23,44,17.70
2017,05,23,23,45,8.10
2017,05,23,23,46,6.40
2017,05,23,23,47,6.40
2017,05,23,23,48,8.10
2017,05,23,23,49,3.20
2017,05,23,23,50,3.20
2017,05,23,23,51,12.90
2017,05,23,23,52,9.60
2017,05,23,23,53,8.10
2017,05,23,23,54,9.60
2017,05,23,23,55,3.20
2017,05,23,23,56,6.40
2017,05,23,23,57,6.40
2017,05,23,23,58,3.20
2017,05,23,23,59,9.60
